KD7TTL Weather Reports


Display with metric or nautical units.
time (UTC)temp
F
wind
direction
speed
MPH
gust
MPH
rain 1hr
in
rain 24hr
in
rain mn
in
humidity
%
barometer
mb
20260502232509 73 214 1.0 10.0 0.00 0.00 0.00 52 1015.4
20260502232010 73 338 3.0 10.0 0.00 0.00 0.00 54 1015.4
20260502231524 74 9 1.0 9.0 0.00 0.00 0.00 52 1015.5
20260502231007 74 53 2.0 7.0 0.00 0.00 0.00 54 1015.5
20260502230511 73 250 1.0 7.0 0.00 0.00 0.00 56 1015.7
20260502230026 73 227 3.0 10.0 0.00 0.00 0.00 56 1015.7
20260502225510 73 265 1.0 10.0 0.00 0.00 0.00 57 1015.8
20260502225011 74 38 1.0 9.0 0.00 0.00 0.00 58 1015.8
20260502224524 73 24 3.0 9.0 0.00 0.00 0.00 58 1015.9
20260502224009 73 250 2.0 10.0 0.00 0.00 0.00 59 1015.9
20260502223502 73 32 2.0 10.0 0.00 0.00 0.00 62 1016.0
20260502223002 73 22 2.0 9.0 0.00 0.00 0.00 58 1016.1
20260502222502 73 165 1.0 8.0 0.00 0.00 0.00 61 1016.1
20260502222002 73 303 2.0 12.0 0.00 0.00 0.00 59 1016.2
20260502221506 73 265 2.0 12.0 0.00 0.00 0.00 61 1016.2
20260502221002 73 47 3.0 9.0 0.00 0.00 0.00 60 1016.2
20260502220502 73 13 1.0 12.0 0.00 0.00 0.00 63 1016.2
20260502220005 73 68 4.0 12.0 0.00 0.00 0.00 62 1016.3
20260502215502 73 303 1.0 12.0 0.00 0.00 0.00 62 1016.4
20260502215003 73 65 1.0 12.0 0.00 0.00 0.00 62 1016.4
20260502214504 74 54 5.0 12.0 0.00 0.00 0.00 60 1016.4
20260502214005 73 309 1.0 7.0 0.00 0.00 0.00 63 1016.5
20260502213505 73 47 1.0 6.0 0.00 0.00 0.00 62 1016.6
20260502213003 73 265 2.0 7.0 0.00 0.00 0.00 60 1016.6
20260502212504 72 309 2.0 7.0 0.00 0.00 0.00 65 1016.6
20260502212002 72 51 2.0 7.0 0.00 0.00 0.00 64 1016.7
20260502211508 72 312 2.0 9.0 0.00 0.00 0.00 62 1016.7
20260502211000 72 27 3.0 9.0 0.00 0.00 0.00 63 1016.8
20260502210502 72 212 1.0 8.0 0.00 0.00 0.00 65 1016.8
20260502210006 72 30 2.0 7.0 0.00 0.00 0.00 66 1016.8
20260502205502 72 74 2.0 7.0 0.00 0.00 0.00 67 1016.9
20260502205002 71 54 2.0 6.0 0.00 0.00 0.00 66 1017.0
20260502204504 71 221 1.0 8.0 0.00 0.00 0.00 65 1017.0
20260502204003 71 93 1.0 11.0 0.00 0.00 0.00 65 1017.0
20260502203503 71 49 6.0 11.0 0.00 0.00 0.00 63 1017.1
20260502203003 70 76 2.0 6.0 0.00 0.00 0.00 65 1017.1
20260502202504 70 330 2.0 10.0 0.00 0.00 0.00 68 1017.2
20260502202003 70 51 2.0 10.0 0.00 0.00 0.00 66 1017.3
20260502201503 70 93 3.0 10.0 0.00 0.00 0.00 65 1017.3
20260502201004 70 230 1.0 8.0 0.00 0.00 0.00 66 1017.2
20260502200503 70 30 3.0 13.0 0.00 0.00 0.00 66 1017.1
20260502200005 70 15 3.0 13.0 0.00 0.00 0.00 68 1017.2
20260502195503 70 338 2.0 9.0 0.00 0.00 0.00 66 1017.1
20260502195005 70 265 2.0 9.0 0.00 0.00 0.00 69 1017.2
20260502194502 70 56 2.0 7.0 0.00 0.00 0.00 69 1017.2
20260502194002 69 325 2.0 6.0 0.00 0.00 0.00 67 1017.2
20260502193502 69 43 3.0 8.0 0.00 0.00 0.00 69 1017.3
20260502193004 68 72 3.0 9.0 0.00 0.00 0.00 67 1017.4
20260502192503 68 292 2.0 9.0 0.00 0.00 0.00 69 1017.3
20260502192003 68 44 1.0 6.0 0.00 0.00 0.00 68 1017.4
20260502191503 67 19 2.0 9.0 0.00 0.00 0.00 70 1017.5
20260502191003 67 68 3.0 9.0 0.00 0.00 0.00 70 1017.6
20260502190503 66 83 2.0 7.0 0.00 0.00 0.00 69 1017.6
20260502190004 66 325 2.0 9.0 0.00 0.00 0.00 72 1017.7
20260502185502 66 347 5.0 9.0 0.00 0.00 0.00 74 1017.7
20260502185003 66 291 1.0 6.0 0.00 0.00 0.00 74 1017.8
20260502184510 65 298 2.0 7.0 0.00 0.00 0.00 73 1018.0
20260502184003 64 265 2.0 11.0 0.00 0.00 0.00 73 1018.0
20260502183503 64 144 1.0 11.0 0.00 0.00 0.00 79 1018.0
20260502183005 63 57 4.0 6.0 0.00 0.00 0.00 74 1018.0
20260502182504 63 30 2.0 6.0 0.00 0.00 0.00 76 1018.1
20260502182006 63 144 1.0 6.0 0.00 0.00 0.00 75 1018.2
20260502181504 63 319 2.0 6.0 0.00 0.00 0.00 75 1018.2
20260502181004 63 31 4.0 7.0 0.00 0.00 0.00 75 1018.3
20260502180504 63 265 2.0 7.0 0.00 0.00 0.00 77 1018.4
20260502170504 59 46 1.0 6.0 0.00 0.00 0.00 84 1018.3
20260502164003 56 323 3.0 9.0 0.00 0.00 0.00 84 1018.3
20260502163503 56 23 3.0 9.0 0.00 0.00 0.00 84 1018.2
20260502163003 56 51 4.0 8.0 0.00 0.00 0.00 84 1018.2
20260502162507 56 38 3.0 9.0 0.00 0.00 0.00 85 1018.2
20260502162007 55 19 3.0 9.0 0.00 0.00 0.00 85 1018.1
20260502161506 55 298 1.0 6.0 0.00 0.00 0.00 85 1018.2
20260502161007 55 243 1.0 4.0 0.00 0.00 0.00 85 1018.3
20260502160508 55 34 1.0 3.0 0.00 0.00 0.00 85 1018.4
20260502152004 52 34 1.0 3.0 0.00 0.00 0.00 89 1018.2
20260502151509 52 38 1.0 3.0 0.00 0.00 0.00 91 1018.2
20260502151006 51 178 1.0 5.0 0.00 0.00 0.00 92 1018.2
20260502150504 51 93 1.0 5.0 0.00 0.00 0.00 93 1018.1
20260502130506 46 41 0.0 2.0 0.00 0.00 0.00 93 1018.3
20260502123505 46 34 0.0 1.0 0.00 0.00 0.00 92 1018.7
20260502123019 46 9 0.0 2.0 0.00 0.00 0.00 92 1018.6
20260502122503 46 51 0.0 2.0 0.00 0.00 0.00 92 1018.7
20260502122009 46 51 0.0 1.0 0.00 0.00 0.00 92 1018.6
20260502121515 46 120 0.0 1.0 0.00 0.00 0.00 92 1018.5
20260502121007 46 93 0.0 2.0 0.00 0.00 0.00 91 1018.4
20260502120508 46 9 0.0 2.0 0.00 0.00 0.00 91 1018.4
20260502115509 46 178 0.0 1.0 0.00 0.00 0.00 91 1018.2
20260502115006 46 309 0.0 1.0 0.00 0.00 0.00 90 1018.1
20260502114516 46 153 0.0 1.0 0.00 0.00 0.00 90 1018.0
20260502114008 47 178 0.0 1.0 0.00 0.00 0.00 91 1017.7
20260502113509 47 93 0.0 1.0 0.00 0.00 0.00 91 1017.6
20260502113018 47 51 0.0 1.0 0.00 0.00 0.00 91 1017.6
20260502112507 47 9 0.0 1.0 0.00 0.00 0.00 90 1017.7
20260502112007 47 51 0.0 1.0 0.00 0.00 0.00 90 1017.7
20260502111517 47 51 0.0 1.0 0.00 0.00 0.00 90 1017.7
20260502111006 47 51 0.0 1.0 0.00 0.00 0.00 90 1017.7
20260502110507 47 360 0.0 1.0 0.00 0.00 0.00 90 1017.8
20260502110022 47 51 0.0 1.0 0.00 0.00 0.00 90 1017.8
20260502105507 47 51 0.0 1.0 0.00 0.00 0.00 90 1017.7
20260502105006 48 291 0.0 1.0 0.00 0.00 0.00 90 1017.8
20260502104537 48 309 0.0 2.0 0.00 0.00 0.00 90 1017.9
20260502104006 48 9 0.0 2.0 0.00 0.00 0.00 90 1018.0
20260502103503 48 41 0.0 1.0 0.00 0.00 0.00 90 1018.1
20260502103003 48 9 0.0 1.0 0.00 0.00 0.00 90 1018.2
20260502102502 48 51 0.0 1.0 0.00 0.00 0.00 90 1018.3
20260502102003 48 9 0.0 1.0 0.00 0.00 0.00 89 1018.1
20260502101503 48 309 0.0 1.0 0.00 0.00 0.00 89 1018.1
20260502101003 49 51 0.0 1.0 0.00 0.00 0.00 89 1018.1
20260502100503 49 309 0.0 1.0 0.00 0.00 0.00 89 1018.0
20260502091509 50 9 0.0 2.0 0.00 0.00 0.00 89 1017.7
20260502091004 50 325 0.0 2.0 0.00 0.00 0.00 89 1017.7
20260502090504 50 34 1.0 2.0 0.00 0.00 0.00 89 1017.7
20260502071505 51 309 0.0 1.0 0.00 0.00 0.00 85 1017.8
20260502071003 51 120 0.0 1.0 0.00 0.00 0.00 85 1017.8
20260502070502 51 51 0.0 1.0 0.00 0.00 0.00 84 1017.8
20260502070002 51 51 0.0 1.0 0.00 0.00 0.00 84 1017.7
20260502065504 51 93 0.0 2.0 0.00 0.00 0.00 84 1017.6
20260502065002 51 137 0.0 2.0 0.00 0.00 0.00 84 1017.7
20260502064507 52 68 0.0 2.0 0.00 0.00 0.00 83 1017.6
20260502064003 52 9 0.0 2.0 0.00 0.00 0.00 83 1017.7
20260502063503 52 149 1.0 2.0 0.00 0.00 0.00 82 1017.7
20260502063002 52 9 0.0 2.0 0.00 0.00 0.00 82 1017.4
20260502062503 53 68 0.0 1.0 0.00 0.00 0.00 81 1017.5
20260502062004 53 265 0.0 1.0 0.00 0.00 0.00 81 1017.5
20260502061505 53 34 0.0 0.0 0.00 0.00 0.00 81 1017.4
20260502061003 53 265 0.0 1.0 0.00 0.00 0.00 81 1017.5
20260502060503 53 93 0.0 1.0 0.00 0.00 0.00 80 1017.5
20260502060003 53 51 0.0 1.0 0.00 0.00 0.00 80 1017.4
20260502055503 53 126 0.0 1.0 0.00 0.00 0.00 80 1017.5
20260502055005 53 178 0.0 1.0 0.00 0.00 0.00 80 1017.4
20260502054509 54 9 0.0 1.0 0.00 0.00 0.00 80 1017.4
20260502054001 54 9 0.0 2.0 0.00 0.00 0.00 79 1017.4
20260502053502 54 137 0.0 2.0 0.00 0.00 0.00 79 1017.4
20260502053003 54 9 0.0 2.0 0.00 0.00 0.00 78 1017.4
20260502052502 54 309 0.0 2.0 0.00 0.00 0.00 78 1017.5
20260502052002 54 265 0.0 1.0 0.00 0.00 0.00 78 1017.5
20260502051503 55 265 0.0 2.0 0.00 0.00 0.00 77 1017.3
20260502051002 55 34 0.0 2.0 0.00 0.00 0.00 76 1017.4
20260502050506 55 309 0.0 1.0 0.00 0.00 0.00 76 1017.3
20260502050024 55 309 0.0 1.0 0.00 0.00 0.00 76 1017.2
20260502045507 55 265 0.0 2.0 0.00 0.00 0.00 76 1017.0
20260502045011 56 34 0.0 2.0 0.00 0.00 0.00 76 1017.1
20260502044525 56 146 1.0 2.0 0.00 0.00 0.00 74 1017.1
20260502044010 56 51 0.0 2.0 0.00 0.00 0.00 73 1017.0
20260502043510 57 309 1.0 2.0 0.00 0.00 0.00 73 1016.9
20260502043024 57 9 0.0 1.0 0.00 0.00 0.00 72 1017.1
20260502042508 57 298 0.0 2.0 0.00 0.00 0.00 71 1017.1
20260502042010 58 93 0.0 2.0 0.00 0.00 0.00 71 1017.1
20260502041526 58 178 1.0 2.0 0.00 0.00 0.00 70 1016.9
20260502041008 58 265 0.0 2.0 0.00 0.00 0.00 70 1016.9
20260502040509 58 9 0.0 3.0 0.00 0.00 0.00 68 1016.9
20260502040026 59 51 1.0 3.0 0.00 0.00 0.00 69 1016.7
20260502035509 59 51 0.0 3.0 0.00 0.00 0.00 69 1016.8
20260502035010 59 51 0.0 3.0 0.00 0.00 0.00 69 1017.0
20260502034537 59 309 0.0 3.0 0.00 0.00 0.00 69 1017.0
20260502034007 59 15 1.0 5.0 0.00 0.00 0.00 69 1017.1
20260502033514 60 205 1.0 5.0 0.00 0.00 0.00 68 1017.2
20260502033030 60 165 1.0 2.0 0.00 0.00 0.00 68 1016.9
20260502032506 60 51 0.0 3.0 0.00 0.00 0.00 67 1016.6
20260502032011 60 325 1.0 3.0 0.00 0.00 0.00 65 1016.5
20260502031530 61 67 0.0 3.0 0.00 0.00 0.00 68 1016.3
20260502031009 61 34 1.0 3.0 0.00 0.00 0.00 66 1016.4
20260502030510 61 34 1.0 2.0 0.00 0.00 0.00 65 1016.4
20260502030023 61 51 0.0 3.0 0.00 0.00 0.00 65 1016.5
20260502025509 61 51 0.0 3.0 0.00 0.00 0.00 65 1016.5
20260502025010 61 178 0.0 3.0 0.00 0.00 0.00 66 1016.4
20260502024528 61 38 0.0 4.0 0.00 0.00 0.00 66 1016.3
20260502024010 61 48 2.0 5.0 0.00 0.00 0.00 66 1016.3
20260502023505 62 9 0.0 5.0 0.00 0.00 0.00 68 1016.1
20260502023003 62 34 1.0 5.0 0.00 0.00 0.00 67 1016.0
20260502022504 62 9 1.0 5.0 0.00 0.00 0.00 66 1016.0
20260502022004 63 31 2.0 5.0 0.00 0.00 0.00 66 1016.0
20260502021503 63 45 1.0 4.0 0.00 0.00 0.00 65 1016.0
20260502021003 63 43 1.0 4.0 0.00 0.00 0.00 65 1015.8
20260502020503 64 46 2.0 4.0 0.00 0.00 0.00 64 1015.8
20260502020003 64 51 1.0 8.0 0.00 0.00 0.00 64 1016.0
20260502015512 64 32 1.0 8.0 0.00 0.00 0.00 64 1015.8
20260502015007 64 36 1.0 10.0 0.00 0.00 0.00 64 1015.9
20260502014507 65 40 2.0 10.0 0.00 0.00 0.00 64 1015.9
20260502014002 65 87 1.0 6.0 0.00 0.00 0.00 63 1015.9
20260502013502 65 63 2.0 7.0 0.00 0.00 0.00 62 1015.8
20260502013004 66 316 1.0 7.0 0.00 0.00 0.00 62 1015.8
20260502012502 66 250 2.0 6.0 0.00 0.00 0.00 62 1015.8
20260502012003 67 26 2.0 5.0 0.00 0.00 0.00 61 1015.8
20260502011504 67 265 1.0 4.0 0.00 0.00 0.00 60 1015.8
20260502011003 67 34 1.0 5.0 0.00 0.00 0.00 61 1015.8
20260502010502 67 250 1.0 7.0 0.00 0.00 0.00 61 1015.7
20260502010003 68 243 1.0 7.0 0.00 0.00 0.00 60 1015.7
20260502005503 68 20 1.0 9.0 0.00 0.00 0.00 59 1015.7
20260502005003 68 41 2.0 9.0 0.00 0.00 0.00 58 1015.8
20260502004504 68 26 2.0 9.0 0.00 0.00 0.00 59 1015.6
20260502004005 69 31 2.0 10.0 0.00 0.00 0.00 58 1015.6
20260502003502 70 16 3.0 10.0 0.00 0.00 0.00 58 1015.7
20260502003012 70 30 1.0 6.0 0.00 0.00 0.00 57 1015.7
20260502002502 70 29 1.0 5.0 0.00 0.00 0.00 59 1015.6
20260502002003 71 34 1.0 4.0 0.00 0.00 0.00 58 1015.6
20260502001505 71 76 1.0 4.0 0.00 0.00 0.00 58 1015.5
20260502001003 70 265 1.0 4.0 0.00 0.00 0.00 57 1015.5
20260502000502 70 221 1.0 4.0 0.00 0.00 0.00 56 1015.5
20260502000004 70 137 1.0 7.0 0.00 0.00 0.00 56 1015.5
20260501235503 70 292 1.0 7.0 0.00 0.00 0.00 55 1015.5
20260501235003 71 100 2.0 9.0 0.00 0.00 0.00 55 1015.5
20260501234504 71 239 2.0 11.0 0.00 0.00 0.00 54 1015.5
20260501234003 71 30 4.0 14.0 0.00 0.00 0.00 54 1015.5
20260501233506 71 33 3.0 14.0 0.00 0.00 0.00 53 1015.6
20260501233003 72 286 2.0 11.0 0.00 0.00 0.00 56 1015.7